Regional Weather Roundup
Issued by NWS Goodland, KS

Home | Current Version | Previous Version | Graphics & Text | Print | Product List | Glossary On
Versions: 1 2 3 4 5 6 7 8 9 10 11 12 13 14 15 16 17 18 19 20 21 22 23 24 25 26 27 28 29 30 31 32 33 34 35 36 37 38 39 40 41 42 43 44 45 46 47 48 49 50
926
ASUS43 KGLD 301759
RWRGLD

GOODLAND FORECAST AREA HOURLY WEATHER ROUNDUP
NATIONAL WEATHER SERVICE GOODLAND KS
1200 PM MDT SAT APR 30 2016

...OFFICIAL OBSERVATIONS...

CITY           SKY/WX    TMP DP  RH WIND       PRES   REMARKS
GOODLAND KS    CLOUDY    38  34  85 NW18      29.83S
HILL CITY KS   CLOUDY    46  39  76 NW12      29.79S
IMPERIAL NEB   MIX PCPN  35  33  92 N17       29.85R
MCCOOK NEB     CLOUDY    41  38  89 N17       29.80F
AKRON CO       SNOW      32  31  96 N23       29.90R VSB 1/2 WCI  19
BURLINGTON CO  CLOUDY    36  30  79 NW24      29.86R
LIMON CO       LGT SNOW  32  29  88 NW26G35   29.90R FOG     WCI  18
$$

...UNOFFICIAL OBSERVATIONS...

CITY           SKY/WX    TMP DP  RH WIND       PRES   REMARKS
COLBY KS       CLOUDY    43  39  87 NW16      29.83R
GOVE KS          N/A     44  32  63 MISG        N/A
LENORA KS        N/A     42  32  68 MISG        N/A
NORTON KS      DRIZZLE   41  36  81 NW13      29.78S
SHARON SPRINGS   N/A     41  37  84 NW18        N/A
KIT CARSON CO    N/A     38  35  89 MISG        N/A
YUMA CO          N/A     34  33  95 N13G20      N/A
$$




USA.gov is the U.S. government's official web portal to all federal, state and local government web resources and services.